Stephenville, TX

6:56 PM CDT on April 28, 2017 (GMT -0500)
Clark Municipal

Weather History for KSEP - March, 2012

Change the Weather History Date:

Tuesday, March 6, 2012

  Actual Average Record
Temperature  
Mean Temperature 61 °F -  
Max Temperature 69 °F 65 °F 88 °F (1956)
Min Temperature 53 °F 39 °F 15 °F (1943)
Degree Days  
Heating Degree Days 4    
Growing Degree Days 11 (Base 50)    
Moisture  
Dew Point 48 °F    
Average Humidity 63    
Maximum Humidity 82    
Minimum Humidity 43    
Precipitation  
Precipitation 0.00 in - - ()
Sea Level Pressure  
Sea Level Pressure 30.08 in    
Wind  
Wind Speed 16 mph (South)    
Max Wind Speed 25 mph    
Max Gust Speed 36 mph    
Visibility 10 miles    
Events      
Averages and records for this station are not official NWS values.
T = Trace of Precipitation, MM = Missing Value Source: NWS Daily Summary

Daily Weather History Graph

Daily Weather History Graph

Search for Another Location

Airport or City:

Trip Planner

Search our weather history database for the weather conditions in past years. The results will help you decide how hot, cold, wet, or windy it might be!

Date:

Astronomy

Mar. 06, 2012 Rise Set
Actual Time 6:53 AM CST 6:34 PM CST
Civil Twilight 6:29 AM CST 6:59 PM CST
Nautical Twilight 6:00 AM CST 7:27 PM CST
Astronomical Twilight 5:32 AM CST 7:55 PM CST
Moon 5:05 PM CST (3/6) 5:25 AM CST (3/6)
Length of Visible Light 12h 30m
Length of Day
11h 41m
Waxing Gibbous, 96% of the Moon is Illuminated
Mar 6
Waxing Gibbous
Mar 8
Full
Mar 14
Last Quarter
Mar 22
New
Mar 30
First Quarter

Hourly Weather History & Observations

Time (CST) Temp. Dew Point Humidity Pressure Visibility Wind Dir Wind Speed Gust Speed Precip Events Conditions
12:15 AM 57.2 °F 35.6 °F 44% 30.19 in 10.0 mi South 13.8 mph 19.6 mph N/A   Clear
12:35 AM 57.2 °F 35.6 °F 44% 30.18 in 10.0 mi South 13.8 mph - N/A   Clear
12:55 AM 55.4 °F 37.4 °F 51% 30.17 in 10.0 mi South 13.8 mph 19.6 mph N/A   Clear
1:15 AM 55.4 °F 37.4 °F 51% 30.17 in 10.0 mi South 13.8 mph 19.6 mph N/A   Clear
1:35 AM 53.6 °F 41.0 °F 62% 30.16 in 10.0 mi South 13.8 mph - N/A   Clear
1:55 AM 53.6 °F 41.0 °F 62% 30.15 in 10.0 mi South 13.8 mph 18.4 mph N/A   Clear
2:15 AM 53.6 °F 42.8 °F 67% 30.15 in 10.0 mi South 15.0 mph 19.6 mph N/A   Clear
2:35 AM 53.6 °F 42.8 °F 67% 30.14 in 10.0 mi South 15.0 mph 21.9 mph N/A   Clear
2:55 AM 53.6 °F 44.6 °F 72% 30.14 in 10.0 mi South 15.0 mph 25.3 mph N/A   Clear
3:15 AM 53.6 °F 46.4 °F 77% 30.13 in 10.0 mi South 16.1 mph 20.7 mph N/A   Clear
3:35 AM 53.6 °F 46.4 °F 77% 30.13 in 10.0 mi South 16.1 mph 21.9 mph N/A   Clear
3:55 AM 53.6 °F 46.4 °F 77% 30.12 in 10.0 mi South 15.0 mph 23.0 mph N/A   Clear
4:15 AM 53.6 °F 46.4 °F 77% 30.11 in 10.0 mi South 13.8 mph 18.4 mph N/A   Scattered Clouds
4:35 AM 53.6 °F 48.2 °F 82% 30.12 in 10.0 mi South 13.8 mph 19.6 mph N/A   Overcast
4:55 AM 53.6 °F 48.2 °F 82% 30.12 in 10.0 mi South 11.5 mph 18.4 mph N/A   Overcast
5:15 AM 55.4 °F 48.2 °F 77% 30.12 in 10.0 mi South 13.8 mph 18.4 mph N/A   Overcast
5:35 AM 55.4 °F 50.0 °F 82% 30.11 in 10.0 mi South 18.4 mph 25.3 mph N/A   Overcast
5:55 AM 55.4 °F 50.0 °F 82% 30.11 in 10.0 mi South 18.4 mph 26.5 mph N/A   Overcast
6:15 AM 57.2 °F 48.2 °F 72% 30.12 in 10.0 mi South 19.6 mph 26.5 mph N/A   Overcast
6:35 AM 55.4 °F 48.2 °F 77% 30.12 in 10.0 mi South 16.1 mph 23.0 mph N/A   Mostly Cloudy
6:55 AM 55.4 °F 48.2 °F 77% 30.12 in 10.0 mi South 12.7 mph - N/A   Scattered Clouds
7:15 AM 55.4 °F 48.2 °F 77% 30.13 in 10.0 mi South 12.7 mph 18.4 mph N/A   Mostly Cloudy
7:35 AM 55.4 °F 50.0 °F 82% 30.13 in 10.0 mi South 15.0 mph 21.9 mph N/A   Overcast
7:55 AM 55.4 °F 50.0 °F 82% 30.13 in 10.0 mi South 13.8 mph 20.7 mph N/A   Overcast
8:15 AM 55.4 °F 50.0 °F 82% 30.13 in 10.0 mi South 13.8 mph 20.7 mph N/A   Overcast
8:35 AM 55.4 °F 50.0 °F 82% 30.13 in 10.0 mi South 18.4 mph 27.6 mph N/A   Overcast
8:55 AM 59.0 °F 50.0 °F 72% 30.12 in 10.0 mi South 18.4 mph 28.8 mph N/A   Overcast
9:15 AM 59.0 °F 50.0 °F 72% 30.13 in 10.0 mi South 16.1 mph 27.6 mph N/A   Overcast
9:35 AM 59.0 °F 50.0 °F 72% 30.13 in 10.0 mi South 16.1 mph 27.6 mph N/A   Overcast
9:55 AM 59.0 °F 50.0 °F 72% 30.14 in 10.0 mi South 20.7 mph 28.8 mph N/A   Overcast
10:15 AM 60.8 °F 50.0 °F 68% 30.12 in 10.0 mi South 23.0 mph 29.9 mph N/A   Overcast
10:35 AM 60.8 °F 50.0 °F 68% 30.12 in 10.0 mi South 17.3 mph 27.6 mph N/A   Overcast
10:55 AM 60.8 °F 50.0 °F 68% 30.12 in 10.0 mi South 21.9 mph 29.9 mph N/A   Overcast
11:15 AM 60.8 °F 51.8 °F 72% 30.12 in 10.0 mi South 15.0 mph 31.1 mph N/A   Overcast
11:35 AM 62.6 °F 50.0 °F 63% 30.12 in 10.0 mi South 17.3 mph 32.2 mph N/A   Overcast
11:55 AM 62.6 °F 50.0 °F 63% 30.11 in 10.0 mi South 21.9 mph 35.7 mph N/A   Overcast
12:15 PM 64.4 °F 50.0 °F 59% 30.10 in 10.0 mi South 24.2 mph 31.1 mph N/A   Overcast
12:55 PM 68.0 °F 51.8 °F 56% 30.08 in 10.0 mi South 25.3 mph 32.2 mph N/A   Scattered Clouds
1:15 PM 68.0 °F 50.0 °F 52% 30.06 in 10.0 mi South 20.7 mph 32.2 mph N/A   Scattered Clouds
1:35 PM 68.0 °F 50.0 °F 52% 30.05 in 10.0 mi South 20.7 mph 29.9 mph N/A   Scattered Clouds
1:55 PM 69.8 °F 50.0 °F 49% 30.05 in 10.0 mi South 20.7 mph 28.8 mph N/A   Clear
2:15 PM 69.8 °F 48.2 °F 46% 30.04 in 10.0 mi South 18.4 mph 26.5 mph N/A   Clear
2:35 PM 69.8 °F 50.0 °F 49% 30.02 in 10.0 mi South 17.3 mph 28.8 mph N/A   Clear
2:55 PM 69.8 °F 48.2 °F 46% 30.02 in 10.0 mi South 20.7 mph 29.9 mph N/A   Clear
3:15 PM 69.8 °F 48.2 °F 46% 30.01 in 10.0 mi SSE 19.6 mph 28.8 mph N/A   Clear
3:35 PM 69.8 °F 48.2 °F 46% 30.00 in 10.0 mi SSE 17.3 mph 28.8 mph N/A   Clear
3:55 PM 69.8 °F 48.2 °F 46% 30.00 in 10.0 mi South 20.7 mph 28.8 mph N/A   Clear
4:15 PM 69.8 °F 46.4 °F 43% 29.99 in 10.0 mi SSE 24.2 mph 32.2 mph N/A   Clear
4:35 PM 69.8 °F 46.4 °F 43% 29.99 in 10.0 mi South 18.4 mph 31.1 mph N/A   Clear
4:55 PM 69.8 °F 48.2 °F 46% 29.98 in 10.0 mi SSE 18.4 mph 28.8 mph N/A   Clear
5:15 PM 68.0 °F 46.4 °F 46% 29.97 in 10.0 mi SSE 21.9 mph 33.4 mph N/A   Clear
5:35 PM 68.0 °F 46.4 °F 46% 29.96 in 10.0 mi SSE 17.3 mph 33.4 mph N/A   Clear
5:55 PM 68.0 °F 48.2 °F 49% 29.94 in 10.0 mi SSE 19.6 mph 27.6 mph N/A   Clear
6:55 PM 66.2 °F 48.2 °F 52% 29.95 in 10.0 mi SSE 18.4 mph 29.9 mph N/A   Clear
7:15 PM 64.4 °F 50.0 °F 59% 29.96 in 10.0 mi SSE 16.1 mph 23.0 mph N/A   Clear
7:35 PM 64.4 °F 50.0 °F 59% 29.97 in 10.0 mi South 15.0 mph 24.2 mph N/A   Clear
7:55 PM 64.4 °F 50.0 °F 59% 29.96 in 10.0 mi SSE 17.3 mph 25.3 mph N/A   Clear
8:15 PM 64.4 °F 50.0 °F 59% 29.97 in 10.0 mi SSE 16.1 mph 25.3 mph N/A   Clear
8:35 PM 62.6 °F 50.0 °F 63% 29.97 in 10.0 mi SSE 18.4 mph 29.9 mph N/A   Clear
8:55 PM 62.6 °F 50.0 °F 63% 29.98 in 10.0 mi South 17.3 mph 28.8 mph N/A   Clear
9:15 PM 62.6 °F 50.0 °F 63% 29.97 in 10.0 mi South 16.1 mph 25.3 mph N/A   Clear
9:35 PM 62.6 °F 50.0 °F 63% 29.99 in 10.0 mi South 15.0 mph 26.5 mph N/A   Clear
9:55 PM 62.6 °F 50.0 °F 63% 29.99 in 10.0 mi SSE 17.3 mph 23.0 mph N/A   Scattered Clouds
10:15 PM 62.6 °F 50.0 °F 63% 30.00 in 10.0 mi South 16.1 mph 26.5 mph N/A   Scattered Clouds
10:35 PM 62.6 °F 51.8 °F 68% 30.00 in 10.0 mi South 18.4 mph 28.8 mph N/A   Scattered Clouds
10:55 PM 62.6 °F 51.8 °F 68% 29.99 in 10.0 mi South 13.8 mph 23.0 mph N/A   Scattered Clouds
11:15 PM 62.6 °F 51.8 °F 68% 29.99 in 10.0 mi South 18.4 mph 26.5 mph N/A   Mostly Cloudy
11:35 PM 62.6 °F 51.8 °F 68% 29.98 in 10.0 mi South 16.1 mph 28.8 mph N/A   Overcast
11:55 PM 62.6 °F 51.8 °F 68% 29.97 in 10.0 mi South 18.4 mph 27.6 mph N/A   Overcast